ASTRA 1F                
1 23842U 96021A   19266.15307161  .00000129  00000-0  00000+0 0  9996
2 23842   0.0447 354.0063 0004661 195.3444 271.7616  1.00270896 85673
SL-12 R/B(2)            
1 23845U 96021D   19266.43445583 -.00000145  00000-0  00000+0 0  9990
2 23845   8.5898  14.0549 3977661 342.8949   9.9061  1.64338611140815